Tracking 30261 objects as of 18-Feb-2025
HD Live streaming from Space Station
objects crossing your sky now

STARLINK-5120

Track STARLINK-5120 now!
10-day predictions
STARLINK-5120 is classified as:


NORAD ID: 53982
Int'l Code: 2022-125U
Perigee: 545.9 km
Apogee: 547.8 km
Inclination: 53.2 °
Period: 95.4 minutes
Semi major axis: 6917 km
RCS: Unknown
Launch date: October 5, 2022
Source: United States (US)
Launch site: AIR FORCE WESTERN TEST RANGE (AFWTR)
Your satellite tracking list
Your tracking list is empty




NASA's NSSDC Master Catalog

Two Line Element Set (TLE):
1 53982U 22125U   25048.58065218  .00001495  00000-0  11197-3 0  9994
2 53982  53.2167 142.9787 0001387  84.2309 275.8841 15.08843115131316
Source of the keplerian elements: AFSPC